{"data":{"norad_id":45132,"intl_designator":"2020-008B","name":"ONEWEB-0017","alt_names":[],"object_type":"PAYLOAD","status":"ACTIVE","operator":null,"country":"UK","launch_date":"2020-02-06","launch_site_code":"TYMSC","launch_vehicle":null,"mission":null,"orbit_class":"UNKNOWN","rcs_meters":null,"size_class":null,"mass_kg":null,"dimensions":null,"purposes":["comms"],"wikipedia_slug":null,"has_3d_model":false,"image_url":null,"decayed_at":null,"tle_current":{"epoch":"2026-05-25T02:13:10.159680Z","epoch_age_seconds":63890,"freshness":"FRESH","line1":"1 45132U 20008B   26145.09247870  .00000520  00000+0  14537-2 0  9998","line2":"2 45132  87.8849  40.8663 0001618  78.1412 281.9896 13.10371737304921","mean_motion":13.10371737,"eccentricity":0.0001618,"inclination_deg":87.8849,"raan_deg":40.8663,"arg_perigee_deg":78.1412,"mean_anomaly_deg":281.9896,"bstar":0.0014537,"rev_number":30492,"period_min":109.89248007567,"perigee_km":1220.4916695337,"apogee_km":1222.9509836882,"semimajor_km":7599.8583266109,"source":"CELESTRAK","updated_at":"2026-05-25T13:38:22.332784Z"}}}